Regional Weather Roundup
Issued by NWS

Home | Current Version | Previous Version | Graphics & Text | Print | Product List | Glossary On
Versions: 1 2 3 4 5 6 7 8 9 10 11 12 13 14 15 16 17 18 19 20 21 22 23 24 25 26 27 28 29 30 31 32 33 34 35 36 37 38 39 40 41 42 43 44 45 46 47 48 49 50
000
ASUS43 KFSD 051010
RWRSD

WEATHER ROUNDUP FOR SOUTH DAKOTA
NATIONAL WEATHER SERVICE SIOUX FALLS SD
500 AM CDT SUN JUL 05 2015

NOTE: "FAIR" INDICATES FEW OR NO CLOUDS BELOW 12,000 FEET WITH NO
SIGNIFICANT WEATHER AND/OR OBSTRUCTIONS TO VISIBILITY.


SDZ001>005-009-010-012>017-051100-
NORTHWEST AND NORTH CENTRAL SOUTH DAKOTA

CITY           SKY/WX    TMP DP  RH WIND       PRES   REMARKS
BUFFALO          N/A     69  58  67 S5        29.68F
FAITH            N/A     68  62  81 SW13      29.73F
MOBRIDGE       CLEAR     70  69  97 E9        29.68F
$$

SDZ012>016-024>037-041>051-057-063-072>074-051100-
SOUTHWEST AND SOUTH CENTRAL SOUTH DAKOTA

CITY           SKY/WX    TMP DP  RH WIND       PRES   REMARKS
RAPID CTY ARPT CLEAR     65  61  87 SE5       29.78F
PIERRE         CLEAR     69  60  73 S3        29.71R
CUSTER         CLEAR     58  53  84 NW5       29.96S
ELLSWORTH AFB  CLEAR     69  62  77 S5        29.77S
PHILIP         CLEAR     67  60  78 CALM      29.74S
PINE RIDGE     CLEAR     72  62  71 SE6       29.81F
SPEARFISH      FAIR      72  54  53 CALM      29.81S
WINNER         FAIR      73  63  70 SW3       29.74S
$$

SDZ004>011-016>023-039-040-051100-
NORTHEAST SOUTH DAKOTA

CITY           SKY/WX    TMP DP  RH WIND       PRES   REMARKS
ABERDEEN       MOCLDY    73  64  73 MISG      29.75F
WATERTOWN      CLOUDY    70  64  81 S14       29.86R
BROOKINGS      CLOUDY    68  61  77 S7        29.88R
SISSETON         N/A     72  64  76 S15       29.76F
$$

SDZ017-020-022-023-036>040-048>070-051100-
SOUTHEAST SOUTH DAKOTA

CITY           SKY/WX    TMP DP  RH WIND       PRES   REMARKS
SIOUX FALLS    CLOUDY    70  62  76 S14       29.86R
HURON          MOCLDY    70  66  87 E14       29.79R
CHAMBERLAIN    CLEAR     71  66  84 SE10      29.75S
MITCHELL       MOCLDY    71  65  81 SE7       29.81R
YANKTON        MOCLDY    70  64  83 S14       29.78F
$$

ABBREVIATIONS USED IN REMARKS
   TC - TEMPERATURE IN CELSIUS
  WCI - WIND CHILL INDEX
   HX - HEAT INDEX
  VSB - VISIBILITY



USA.gov is the U.S. government's official web portal to all federal, state and local government web resources and services.